1 Minute Report
Date Time Wind Direction Wind Speed Wind Gust Wind Variable Altimeter Temperature Dewpoint Relative Humidity Visibility Ceiling Precip Present Weather Density Alt Wind Chill Heat Index
17/11/18 04:34 000 00 N/A N/A 30.01 22(F), -6(C) 20(F), -7(C) 92% 10 CLR N/A N/A N/A 22 F N/A 3540
17/11/18 04:33 000 00 N/A N/A 30.01 22(F), -6(C) 20(F), -7(C) 92% 10 CLR N/A N/A N/A 22 F N/A 3539
17/11/18 04:32 000 00 N/A N/A 30.01 22(F), -6(C) 20(F), -7(C) 92% 10 CLR N/A N/A N/A 22 F N/A 3538
17/11/18 04:31 000 00 N/A N/A 30.01 22(F), -6(C) 20(F), -7(C) 92% 10 CLR N/A N/A N/A 22 F N/A 3537
17/11/18 04:30 140 03 N/A N/A 30.01 22(F), -6(C) 20(F), -7(C) 92% 10 CLR N/A N/A N/A 22 F N/A 3536
17/11/18 04:29 150 03 N/A N/A 30.02 22(F), -6(C) 20(F), -7(C) 92% 10 CLR N/A N/A N/A 22 F N/A 3535
17/11/18 04:28 000 00 N/A N/A 30.02 22(F), -6(C) 20(F), -7(C) 92% 10 CLR N/A N/A N/A 22 F N/A 3534
17/11/18 04:27 000 00 N/A N/A 30.02 22(F), -6(C) 20(F), -7(C) 92% 10 CLR N/A N/A N/A 22 F N/A 3533
17/11/18 04:26 150 03 N/A N/A 30.01 22(F), -6(C) 20(F), -7(C) 92% 10 CLR N/A N/A N/A 22 F N/A 3532
17/11/18 04:25 150 03 N/A N/A 30.01 22(F), -6(C) 20(F), -7(C) 92% 10 CLR N/A N/A N/A 22 F N/A 3531
17/11/18 04:24 150 03 N/A N/A 30.01 22(F), -6(C) 20(F), -7(C) 92% 10 CLR N/A N/A N/A 22 F N/A 3530
17/11/18 04:23 150 03 N/A N/A 30.01 22(F), -6(C) 21(F), -6(C) 100% 10 CLR N/A N/A N/A 22 F N/A 3529
17/11/18 04:22 150 03 N/A N/A 30.01 22(F), -6(C) 20(F), -7(C) 92% 10 CLR N/A N/A N/A 22 F N/A 3528
17/11/18 04:21 150 03 N/A N/A 30.01 22(F), -6(C) 20(F), -7(C) 92% 10 CLR N/A N/A N/A 22 F N/A 3527
17/11/18 04:20 140 03 N/A N/A 30.01 22(F), -6(C) 20(F), -7(C) 92% 10 CLR N/A N/A N/A 22 F N/A 3526
17/11/18 04:19 140 04 N/A N/A 30.01 22(F), -6(C) 20(F), -7(C) 92% 10 CLR N/A N/A N/A 22 F N/A 3525
17/11/18 04:18 140 03 N/A N/A 30.01 22(F), -6(C) 21(F), -6(C) 100% 10 CLR N/A N/A N/A 22 F N/A 3524
17/11/18 04:17 140 03 N/A N/A 30.02 22(F), -6(C) 20(F), -7(C) 92% 10 CLR N/A N/A N/A 22 F N/A 3523
17/11/18 04:16 140 03 N/A N/A 30.02 21(F), -6(C) 20(F), -7(C) 92% 10 CLR N/A N/A N/A 21 F N/A 3522
17/11/18 04:15 150 03 N/A N/A 30.02 21(F), -6(C) 20(F), -7(C) 92% 10 CLR N/A N/A N/A 21 F N/A 3521
17/11/18 04:14 150 03 N/A N/A 30.02 21(F), -6(C) 20(F), -7(C) 92% 10 CLR N/A N/A N/A 21 F N/A 3520
17/11/18 04:13 150 03 N/A N/A 30.02 21(F), -6(C) 20(F), -7(C) 92% 10 CLR N/A N/A N/A 21 F N/A 3519
17/11/18 04:12 150 03 N/A N/A 30.02 21(F), -6(C) 20(F), -7(C) 92% 10 CLR N/A N/A N/A 21 F N/A 3518
17/11/18 04:11 140 03 N/A N/A 30.02 21(F), -6(C) 20(F), -7(C) 92% 10 CLR N/A N/A N/A 21 F N/A 3517
17/11/18 04:10 140 03 N/A N/A 30.02 21(F), -6(C) 21(F), -6(C) 100% 10 CLR N/A N/A N/A 21 F N/A 3516
17/11/18 04:09 130 03 N/A N/A 30.02 21(F), -6(C) 21(F), -6(C) 100% 10 CLR N/A N/A N/A 21 F N/A 3515
17/11/18 04:08 130 03 N/A N/A 30.02 21(F), -6(C) 21(F), -6(C) 100% 10 CLR N/A N/A N/A 21 F N/A 3514
17/11/18 04:07 140 03 N/A N/A 30.02 21(F), -6(C) 21(F), -6(C) 100% 10 CLR N/A N/A N/A 21 F N/A 3513
17/11/18 04:06 140 03 N/A N/A 30.03 21(F), -6(C) 21(F), -6(C) 100% 10 CLR N/A N/A N/A 21 F N/A 3512
17/11/18 04:05 140 03 N/A N/A 30.03 21(F), -6(C) 21(F), -6(C) 100% 10 CLR N/A N/A N/A 21 F N/A 3511
17/11/18 04:04 140 03 N/A N/A 30.02 21(F), -6(C) 21(F), -6(C) 100% 10 CLR N/A N/A N/A 21 F N/A 3510
17/11/18 04:03 140 03 N/A N/A 30.03 20(F), -7(C) 20(F), -7(C) 100% 10 CLR N/A N/A N/A 20 F N/A 3509
17/11/18 04:02 140 03 N/A N/A 30.03 20(F), -7(C) 20(F), -7(C) 100% 10 CLR N/A N/A N/A 20 F N/A 3508
17/11/18 04:01 140 03 N/A N/A 30.03 20(F), -7(C) 20(F), -7(C) 100% 10 CLR N/A N/A N/A 20 F N/A 3507
17/11/18 04:00 140 03 N/A N/A 30.03 19(F), -7(C) 19(F), -7(C) 100% 10 CLR N/A N/A N/A 19 F N/A 3506
17/11/18 03:59 140 03 N/A N/A 30.03 19(F), -7(C) 19(F), -7(C) 100% 10 CLR N/A N/A N/A 19 F N/A 3505
17/11/18 03:58 140 03 N/A N/A 30.03 19(F), -7(C) 19(F), -7(C) 100% 10 CLR N/A N/A N/A 19 F N/A 3504
17/11/18 03:57 150 03 N/A N/A 30.03 19(F), -7(C) 19(F), -7(C) 100% 10 CLR N/A N/A N/A 19 F N/A 3503
17/11/18 03:56 150 03 N/A N/A 30.03 19(F), -7(C) 19(F), -7(C) 100% 10 CLR N/A N/A N/A 19 F N/A 3502
17/11/18 03:55 150 03 N/A N/A 30.03 20(F), -7(C) 20(F), -7(C) 100% 10 CLR N/A N/A N/A 20 F N/A 3501
17/11/18 03:54 000 00 N/A N/A 30.04 20(F), -7(C) 20(F), -7(C) 100% 10 CLR N/A N/A N/A 20 F N/A 3500
17/11/18 03:53 000 00 N/A N/A 30.04 20(F), -7(C) 20(F), -7(C) 100% 10 CLR N/A N/A N/A 20 F N/A 3499
17/11/18 03:52 000 00 N/A N/A 30.04 20(F), -7(C) 20(F), -7(C) 100% 10 CLR N/A N/A N/A 20 F N/A 3498
17/11/18 03:51 000 00 N/A N/A 30.04 20(F), -7(C) 19(F), -7(C) 100% 10 CLR N/A N/A N/A 20 F N/A 3497
17/11/18 03:50 000 00 N/A N/A 30.04 20(F), -7(C) 19(F), -7(C) 100% 10 CLR N/A N/A N/A 20 F N/A 3496
17/11/18 03:49 000 00 N/A N/A 30.04 21(F), -6(C) 20(F), -7(C) 92% 10 CLR N/A N/A N/A 21 F N/A 3495
17/11/18 03:48 000 00 N/A N/A 30.04 21(F), -6(C) 20(F), -7(C) 92% 10 CLR N/A N/A N/A 21 F N/A 3494
17/11/18 03:47 000 00 N/A N/A 30.04 21(F), -6(C) 20(F), -7(C) 92% 10 CLR N/A N/A N/A 21 F N/A 3493
17/11/18 03:46 000 00 N/A N/A 30.04 21(F), -6(C) 20(F), -7(C) 92% 10 CLR N/A N/A N/A 21 F N/A 3492
17/11/18 03:45 000 00 N/A N/A 30.05 21(F), -6(C) 21(F), -6(C) 100% 10 CLR N/A N/A N/A 21 F N/A 3491
17/11/18 03:44 000 00 N/A N/A 30.05 21(F), -6(C) 21(F), -6(C) 100% 10 CLR N/A N/A N/A 21 F N/A 3490
17/11/18 03:43 000 00 N/A N/A 30.05 21(F), -6(C) 21(F), -6(C) 100% 10 CLR N/A N/A N/A 21 F N/A 3489
17/11/18 03:42 000 00 N/A N/A 30.05 21(F), -6(C) 21(F), -6(C) 100% 10 CLR N/A N/A N/A 21 F N/A 3488
17/11/18 03:41 000 00 N/A N/A 30.05 20(F), -7(C) 20(F), -7(C) 100% 10 CLR N/A N/A N/A 20 F N/A 3487
17/11/18 03:40 000 00 N/A N/A 30.05 20(F), -7(C) 20(F), -7(C) 100% 10 CLR N/A N/A N/A 20 F N/A 3486
17/11/18 03:39 000 00 N/A N/A 30.05 20(F), -7(C) 20(F), -7(C) 100% 10 CLR N/A N/A N/A 20 F N/A 3485
17/11/18 03:38 000 00 N/A N/A 30.05 20(F), -7(C) 20(F), -7(C) 100% 10 CLR N/A N/A N/A 20 F N/A 3484
17/11/18 03:37 000 00 N/A N/A 30.05 20(F), -7(C) 20(F), -7(C) 100% 10 CLR N/A N/A N/A 20 F N/A 3483
17/11/18 03:36 000 00 N/A N/A 30.05 19(F), -7(C) 19(F), -7(C) 100% 10 CLR N/A N/A N/A 19 F N/A 3482
17/11/18 03:35 000 00 N/A N/A 30.05 19(F), -7(C) 19(F), -7(C) 100% 10 CLR N/A N/A N/A 19 F N/A 3481
17/11/18 03:34 000 00 N/A N/A 30.04 19(F), -7(C) 19(F), -7(C) 100% 10 CLR N/A N/A N/A 19 F N/A 3480
17/11/18 03:33 000 00 N/A N/A 30.04 19(F), -7(C) 19(F), -7(C) 100% 10 CLR N/A N/A N/A 19 F N/A 3479
17/11/18 03:32 000 00 N/A N/A 30.04 19(F), -7(C) 19(F), -7(C) 100% 10 CLR N/A N/A N/A 19 F N/A 3478
17/11/18 03:31 000 00 N/A N/A 30.04 19(F), -7(C) 19(F), -7(C) 100% 10 CLR N/A N/A N/A 19 F N/A 3477
17/11/18 03:30 000 00 N/A N/A 30.04 19(F), -7(C) 19(F), -7(C) 100% 10 CLR N/A N/A N/A 19 F N/A 3476
17/11/18 03:29 000 00 N/A N/A 30.04 20(F), -7(C) 20(F), -7(C) 100% 10 CLR N/A N/A N/A 20 F N/A 3475
17/11/18 03:28 000 00 N/A N/A 30.03 20(F), -7(C) 20(F), -7(C) 100% 10 CLR N/A N/A N/A 20 F N/A 3474
17/11/18 03:27 000 00 N/A N/A 30.03 20(F), -7(C) 20(F), -7(C) 100% 10 CLR N/A N/A N/A 20 F N/A 3473
17/11/18 03:26 000 00 N/A N/A 30.03 20(F), -7(C) 20(F), -7(C) 100% 10 CLR N/A N/A N/A 20 F N/A 3472
17/11/18 03:25 000 00 N/A N/A 30.03 20(F), -7(C) 20(F), -7(C) 100% 10 CLR N/A N/A N/A 20 F N/A 3471
17/11/18 03:24 000 00 N/A N/A 30.03 20(F), -7(C) 20(F), -7(C) 100% 10 CLR N/A N/A N/A 20 F N/A 3470
17/11/18 03:23 000 00 N/A N/A 30.03 20(F), -7(C) 20(F), -7(C) 100% 10 CLR N/A N/A N/A 20 F N/A 3469
17/11/18 03:22 000 00 N/A N/A 30.03 20(F), -7(C) 20(F), -7(C) 100% 10 CLR N/A N/A N/A 20 F N/A 3468
17/11/18 03:21 000 00 N/A N/A 30.04 20(F), -7(C) 20(F), -7(C) 100% 10 CLR N/A N/A N/A 20 F N/A 3467
17/11/18 03:20 000 00 N/A N/A 30.04 20(F), -7(C) 20(F), -7(C) 100% 10 CLR N/A N/A N/A 20 F N/A 3466
17/11/18 03:19 000 00 N/A N/A 30.04 20(F), -7(C) 20(F), -7(C) 100% 10 CLR N/A N/A N/A 20 F N/A 3465
17/11/18 03:18 000 00 N/A N/A 30.04 20(F), -7(C) 20(F), -7(C) 100% 10 CLR N/A N/A N/A 20 F N/A 3464
17/11/18 03:17 000 00 N/A N/A 30.04 20(F), -7(C) 20(F), -7(C) 100% 10 CLR N/A N/A N/A 20 F N/A 3463
17/11/18 03:16 000 00 N/A N/A 30.04 20(F), -7(C) 20(F), -7(C) 100% 10 CLR N/A N/A N/A 20 F N/A 3462
17/11/18 03:15 000 00 N/A N/A 30.04 20(F), -7(C) 20(F), -7(C) 100% 10 CLR N/A N/A N/A 20 F N/A 3461
17/11/18 03:14 000 00 N/A N/A 30.04 19(F), -7(C) 19(F), -7(C) 100% 10 CLR N/A N/A N/A 19 F N/A 3460
17/11/18 03:13 000 00 N/A N/A 30.04 19(F), -7(C) 19(F), -7(C) 100% 10 CLR N/A N/A N/A 19 F N/A 3459
17/11/18 03:12 000 00 N/A N/A 30.04 19(F), -7(C) 19(F), -7(C) 100% 10 CLR N/A N/A N/A 19 F N/A 3458
17/11/18 03:11 000 00 N/A N/A 30.04 20(F), -7(C) 20(F), -7(C) 100% 10 CLR N/A N/A N/A 20 F N/A 3457
17/11/18 03:10 000 00 N/A N/A 30.04 20(F), -7(C) 20(F), -7(C) 100% 10 CLR N/A N/A N/A 20 F N/A 3456
17/11/18 03:09 000 00 N/A N/A 30.04 20(F), -7(C) 20(F), -7(C) 100% 10 CLR N/A N/A N/A 20 F N/A 3455
17/11/18 03:08 000 00 N/A N/A 30.04 20(F), -7(C) 20(F), -7(C) 100% 10 CLR N/A N/A N/A 20 F N/A 3454
17/11/18 03:07 000 00 N/A N/A 30.04 20(F), -7(C) 20(F), -7(C) 100% 10 CLR N/A N/A N/A 20 F N/A 3453
17/11/18 03:06 000 00 N/A N/A 30.04 20(F), -7(C) 20(F), -7(C) 100% 10 CLR N/A N/A N/A 20 F N/A 3452
17/11/18 03:05 000 00 N/A N/A 30.04 20(F), -7(C) 20(F), -7(C) 100% 10 CLR N/A N/A N/A 20 F N/A 3451
17/11/18 03:04 000 00 N/A N/A 30.04 20(F), -7(C) 20(F), -7(C) 100% 10 CLR N/A N/A N/A 20 F N/A 3450
17/11/18 03:03 000 00 N/A N/A 30.04 20(F), -7(C) 20(F), -7(C) 100% 10 CLR N/A N/A N/A 20 F N/A 3449
17/11/18 03:02 000 00 N/A N/A 30.04 20(F), -7(C) 20(F), -7(C) 100% 10 CLR N/A N/A N/A 20 F N/A 3448
17/11/18 03:01 000 00 N/A N/A 30.05 20(F), -7(C) 20(F), -7(C) 100% 10 CLR N/A N/A N/A 20 F N/A 3447
17/11/18 03:00 000 00 N/A N/A 30.05 20(F), -7(C) 20(F), -7(C) 100% 10 CLR N/A N/A N/A 20 F N/A 3446
17/11/18 02:59 000 00 N/A N/A 30.05 20(F), -7(C) 20(F), -7(C) 100% 10 CLR N/A N/A N/A 20 F N/A 3445
17/11/18 02:58 000 00 N/A N/A 30.05 20(F), -7(C) 20(F), -7(C) 100% 10 CLR N/A N/A N/A 20 F N/A 3444
17/11/18 02:57 000 00 N/A N/A 30.05 20(F), -7(C) 20(F), -7(C) 100% 10 CLR N/A N/A N/A 20 F N/A 3443
17/11/18 02:56 000 00 N/A N/A 30.05 20(F), -7(C) 20(F), -7(C) 100% 10 CLR N/A N/A N/A 20 F N/A 3442
17/11/18 02:55 000 00 N/A N/A 30.05 20(F), -7(C) 20(F), -7(C) 100% 10 CLR N/A N/A N/A 20 F N/A 3441
17/11/18 02:54 000 00 N/A N/A 30.05 20(F), -7(C) 20(F), -7(C) 100% 10 CLR N/A N/A N/A 20 F N/A 3440
17/11/18 02:53 000 00 N/A N/A 30.05 20(F), -7(C) 20(F), -7(C) 100% 10 CLR N/A N/A N/A 20 F N/A 3439
17/11/18 02:52 000 00 N/A N/A 30.05 20(F), -7(C) 20(F), -7(C) 100% 10 CLR N/A N/A N/A 20 F N/A 3438
17/11/18 02:51 000 00 N/A N/A 30.05 20(F), -7(C) 20(F), -7(C) 100% 10 CLR N/A N/A N/A 20 F N/A 3437
17/11/18 02:50 000 00 N/A N/A 30.06 20(F), -7(C) 20(F), -7(C) 100% 10 CLR N/A N/A N/A 20 F N/A 3436
17/11/18 02:49 000 00 N/A N/A 30.06 20(F), -7(C) 20(F), -7(C) 100% 10 CLR N/A N/A N/A 20 F N/A 3435
17/11/18 02:48 000 00 N/A N/A 30.06 20(F), -7(C) 20(F), -7(C) 100% 10 CLR N/A N/A N/A 20 F N/A 3434
17/11/18 02:47 000 00 N/A N/A 30.05 21(F), -6(C) 21(F), -6(C) 100% 10 CLR N/A N/A N/A 21 F N/A 3433
17/11/18 02:46 000 00 N/A N/A 30.05 21(F), -6(C) 21(F), -6(C) 100% 10 CLR N/A N/A N/A 21 F N/A 3432
17/11/18 02:45 000 00 N/A N/A 30.05 21(F), -6(C) 21(F), -6(C) 100% 10 CLR N/A N/A N/A 21 F N/A 3431
17/11/18 02:44 000 00 N/A N/A 30.05 21(F), -6(C) 21(F), -6(C) 100% 10 CLR N/A N/A N/A 21 F N/A 3430
17/11/18 02:43 000 00 N/A N/A 30.05 21(F), -6(C) 21(F), -6(C) 100% 10 CLR N/A N/A N/A 21 F N/A 3429
17/11/18 02:42 000 00 N/A N/A 30.05 21(F), -6(C) 21(F), -6(C) 100% 10 CLR N/A N/A N/A 21 F N/A 3428
17/11/18 02:41 000 00 N/A N/A 30.05 21(F), -6(C) 21(F), -6(C) 100% 10 CLR N/A N/A N/A 21 F N/A 3427
17/11/18 02:40 000 00 N/A N/A 30.05 21(F), -6(C) 21(F), -6(C) 100% 10 CLR N/A N/A N/A 21 F N/A 3426
17/11/18 02:39 000 00 N/A N/A 30.05 21(F), -6(C) 21(F), -6(C) 100% 10 CLR N/A N/A N/A 21 F N/A 3425
17/11/18 02:38 000 00 N/A N/A 30.05 20(F), -7(C) 20(F), -7(C) 100% 10 CLR N/A N/A N/A 20 F N/A 3424
17/11/18 02:37 000 00 N/A N/A 30.05 20(F), -7(C) 20(F), -7(C) 100% 10 CLR N/A N/A N/A 20 F N/A 3423
17/11/18 02:36 000 00 N/A N/A 30.05 20(F), -7(C) 20(F), -7(C) 100% 10 CLR N/A N/A N/A 20 F N/A 3422
17/11/18 02:35 000 00 N/A N/A 30.05 20(F), -7(C) 20(F), -7(C) 100% 10 CLR N/A N/A N/A 20 F N/A 3421
17/11/18 02:34 000 00 N/A N/A 30.05 20(F), -7(C) 20(F), -7(C) 100% 10 CLR N/A N/A N/A 20 F N/A 3420